| time (UTC) | temp F | wind direction | speed knots | gust knots | rain 1hr in | rain 24hr in | rain mn in | humidity % | barometer mb |
| 20260506174931 | 70 | 93 | 0.9 | 2.6 | 0.00 | 0.00 | 0.00 | 44 | 1020.5 |
| 20260506174431 | 70 | 321 | 0.9 | 2.6 | 0.00 | 0.00 | 0.00 | 45 | 1020.5 |
| 20260506173931 | 69 | 50 | 0.9 | 2.6 | 0.00 | 0.00 | 0.00 | 45 | 1020.6 |
| 20260506173659 | 70 | 255 | 0.0 | 2.6 | 0.00 | 0.00 | 0.00 | 44 | 1020.5 |
| 20260506172935 | 70 | 89 | 0.0 | 2.6 | 0.00 | 0.00 | 0.00 | 44 | 1020.6 |
| 20260506172433 | 69 | 218 | 0.0 | 1.7 | 0.00 | 0.00 | 0.00 | 45 | 1020.6 |
| 20260506171926 | 69 | 164 | 0.9 | 1.7 | 0.00 | 0.00 | 0.00 | 45 | 1020.7 |
| 20260506171416 | 70 | 288 | 0.0 | 1.7 | 0.00 | 0.00 | 0.00 | 43 | 1020.7 |
| 20260506170910 | 70 | 100 | 0.0 | 1.7 | 0.00 | 0.00 | 0.00 | 45 | 1020.7 |
| 20260506170409 | 69 | 242 | 0.0 | 2.6 | 0.00 | 0.00 | 0.00 | 45 | 1020.7 |
| 20260506165910 | 69 | 217 | 0.0 | 2.6 | 0.00 | 0.00 | 0.00 | 46 | 1020.7 |
| 20260506165414 | 69 | 101 | 0.9 | 3.5 | 0.00 | 0.00 | 0.00 | 48 | 1020.7 |
| 20260506164911 | 68 | 115 | 0.9 | 3.5 | 0.00 | 0.00 | 0.00 | 48 | 1020.5 |
| 20260506164410 | 68 | 143 | 0.9 | 2.6 | 0.00 | 0.00 | 0.00 | 47 | 1020.6 |
| 20260506164132 | 67 | 209 | 0.9 | 2.6 | 0.00 | 0.00 | 0.00 | 48 | 1020.6 |
| 20260506163407 | 66 | 119 | 0.0 | 1.7 | 0.00 | 0.00 | 0.00 | 49 | 1020.6 |
| 20260506162907 | 65 | 101 | 0.0 | 1.7 | 0.00 | 0.00 | 0.00 | 51 | 1020.7 |
| 20260506162632 | 64 | 45 | 0.0 | 0.0 | 0.00 | 0.00 | 0.00 | 51 | 1020.7 |
| 20260506161901 | 64 | 130 | 0.0 | 1.7 | 0.00 | 0.00 | 0.00 | 51 | 1020.7 |
| 20260506161402 | 65 | 107 | 0.0 | 1.7 | 0.00 | 0.00 | 0.00 | 50 | 1020.7 |
| 20260506161126 | 65 | 53 | 0.0 | 2.6 | 0.00 | 0.00 | 0.00 | 50 | 1020.6 |
| 20260506160400 | 64 | 101 | 0.0 | 2.6 | 0.00 | 0.00 | 0.00 | 52 | 1020.7 |
| 20260506155902 | 63 | 70 | 0.0 | 2.6 | 0.00 | 0.00 | 0.00 | 54 | 1020.6 |
| 20260506155402 | 62 | 117 | 0.0 | 2.6 | 0.00 | 0.00 | 0.00 | 55 | 1020.7 |
| 20260506154902 | 62 | 57 | 0.0 | 0.0 | 0.00 | 0.00 | 0.00 | 55 | 1020.6 |
| 20260506154400 | 62 | 18 | 0.0 | 0.0 | 0.00 | 0.00 | 0.00 | 54 | 1020.6 |
| 20260506153902 | 62 | 264 | 0.0 | 0.0 | 0.00 | 0.00 | 0.00 | 55 | 1020.7 |
| 20260506153401 | 62 | 264 | 0.0 | 0.0 | 0.00 | 0.00 | 0.00 | 54 | 1020.7 |
| 20260506152901 | 62 | 266 | 0.0 | 0.0 | 0.00 | 0.00 | 0.00 | 54 | 1020.6 |
| 20260506152627 | 62 | 265 | 0.0 | 0.0 | 0.00 | 0.00 | 0.00 | 55 | 1020.6 |
| 20260506151901 | 62 | 273 | 0.0 | 0.0 | 0.00 | 0.00 | 0.00 | 55 | 1020.6 |
| 20260506151402 | 62 | 273 | 0.0 | 0.0 | 0.00 | 0.00 | 0.00 | 55 | 1020.6 |
| 20260506150901 | 62 | 274 | 0.0 | 0.0 | 0.00 | 0.00 | 0.00 | 54 | 1020.6 |
| 20260506150401 | 63 | 274 | 0.0 | 0.0 | 0.00 | 0.00 | 0.00 | 54 | 1020.6 |
| 20260506145901 | 63 | 215 | 0.0 | 0.0 | 0.00 | 0.00 | 0.00 | 53 | 1020.5 |
| 20260506145401 | 63 | 254 | 0.0 | 0.0 | 0.00 | 0.00 | 0.00 | 54 | 1020.5 |
| 20260506145123 | 62 | 254 | 0.0 | 0.0 | 0.00 | 0.00 | 0.00 | 57 | 1020.4 |
| 20260506144618 | 60 | 254 | 0.0 | 0.0 | 0.00 | 0.00 | 0.00 | 58 | 1020.4 |
| 20260506143857 | 60 | 254 | 0.0 | 0.0 | 0.00 | 0.00 | 0.00 | 59 | 1020.3 |
| 20260506143352 | 59 | 252 | 0.0 | 0.0 | 0.00 | 0.00 | 0.00 | 60 | 1020.3 |
| 20260506143114 | 58 | 249 | 0.0 | 0.0 | 0.00 | 0.00 | 0.00 | 61 | 1020.3 |
| 20260506142352 | 58 | 205 | 0.0 | 0.9 | 0.00 | 0.00 | 0.00 | 62 | 1020.3 |
| 20260506141853 | 57 | 241 | 0.0 | 0.9 | 0.00 | 0.00 | 0.00 | 63 | 1020.3 |
| 20260506141618 | 56 | 300 | 0.0 | 0.0 | 0.00 | 0.00 | 0.00 | 64 | 1020.2 |
| 20260506141116 | 56 | 320 | 0.0 | 0.0 | 0.00 | 0.00 | 0.00 | 65 | 1020.1 |
| 20260506140346 | 55 | 319 | 0.0 | 0.0 | 0.00 | 0.00 | 0.00 | 65 | 1020.0 |
| 20260506135845 | 55 | 319 | 0.0 | 0.0 | 0.00 | 0.00 | 0.00 | 65 | 1020.0 |
| 20260506135345 | 54 | 319 | 0.0 | 0.0 | 0.00 | 0.00 | 0.00 | 65 | 1019.9 |
| 20260506135108 | 54 | 319 | 0.0 | 0.0 | 0.00 | 0.00 | 0.00 | 64 | 1019.9 |
| 20260506135053 | 54 | 319 | 0.0 | 0.0 | 0.00 | 0.00 | 0.00 | 64 | 1019.9 |
| 20260506133845 | 55 | 319 | 0.0 | 0.0 | 0.00 | 0.00 | 0.00 | 64 | 1019.9 |
| 20260506133343 | 55 | 319 | 0.0 | 0.0 | 0.00 | 0.00 | 0.00 | 64 | 1019.9 |
| 20260506132844 | 55 | 319 | 0.0 | 0.0 | 0.00 | 0.00 | 0.00 | 64 | 1019.9 |
| 20260506132609 | 55 | 319 | 0.0 | 0.0 | 0.00 | 0.00 | 0.00 | 64 | 1019.8 |
| 20260506131843 | 55 | 319 | 0.0 | 0.0 | 0.00 | 0.00 | 0.00 | 63 | 1019.8 |
| 20260506131340 | 55 | 319 | 0.0 | 0.0 | 0.00 | 0.00 | 0.00 | 63 | 1019.8 |
| 20260506130842 | 55 | 319 | 0.0 | 0.0 | 0.00 | 0.00 | 0.00 | 63 | 1019.7 |
| 20260506130832 | 55 | 319 | 0.0 | 0.0 | 0.00 | 0.00 | 0.00 | 63 | 1019.7 |
| 20260506130106 | 55 | 319 | 0.0 | 0.0 | 0.00 | 0.00 | 0.00 | 63 | 1019.7 |
| 20260506125339 | 55 | 319 | 0.0 | 0.0 | 0.00 | 0.00 | 0.00 | 63 | 1019.7 |
| 20260506124840 | 55 | 319 | 0.0 | 0.0 | 0.00 | 0.00 | 0.00 | 63 | 1019.7 |
| 20260506124338 | 55 | 319 | 0.0 | 0.0 | 0.00 | 0.00 | 0.00 | 62 | 1019.7 |
| 20260506123839 | 56 | 319 | 0.0 | 0.0 | 0.00 | 0.00 | 0.00 | 62 | 1019.6 |
| 20260506123338 | 56 | 319 | 0.0 | 0.0 | 0.00 | 0.00 | 0.00 | 62 | 1019.5 |
| 20260506122839 | 56 | 319 | 0.0 | 0.0 | 0.00 | 0.00 | 0.00 | 62 | 1019.5 |
| 20260506122605 | 56 | 319 | 0.0 | 0.0 | 0.00 | 0.00 | 0.00 | 62 | 1019.6 |
| 20260506122059 | 56 | 319 | 0.0 | 0.0 | 0.00 | 0.00 | 0.00 | 62 | 1019.6 |
| 20260506121339 | 56 | 319 | 0.0 | 0.0 | 0.00 | 0.00 | 0.00 | 62 | 1019.5 |
| 20260506120834 | 56 | 322 | 0.0 | 0.0 | 0.00 | 0.00 | 0.00 | 62 | 1019.6 |
| 20260506120334 | 56 | 322 | 0.0 | 0.0 | 0.00 | 0.00 | 0.00 | 62 | 1019.5 |
| 20260506115835 | 56 | 223 | 0.0 | 0.0 | 0.00 | 0.00 | 0.00 | 62 | 1019.5 |
| 20260506115335 | 56 | 223 | 0.0 | 0.0 | 0.00 | 0.00 | 0.00 | 62 | 1019.5 |
| 20260506114835 | 56 | 223 | 0.0 | 0.0 | 0.00 | 0.00 | 0.00 | 62 | 1019.5 |
| 20260506114334 | 56 | 222 | 0.0 | 0.9 | 0.00 | 0.00 | 0.00 | 62 | 1019.5 |
| 20260506114052 | 56 | 223 | 0.0 | 0.9 | 0.00 | 0.00 | 0.00 | 62 | 1019.4 |
| 20260506113335 | 56 | 237 | 0.0 | 0.0 | 0.00 | 0.00 | 0.00 | 62 | 1019.4 |
| 20260506112834 | 56 | 207 | 0.0 | 0.9 | 0.00 | 0.00 | 0.00 | 62 | 1019.4 |
| 20260506112330 | 56 | 207 | 0.0 | 1.7 | 0.00 | 0.00 | 0.00 | 62 | 1019.3 |
| 20260506111831 | 56 | 207 | 0.0 | 1.7 | 0.00 | 0.00 | 0.00 | 62 | 1019.3 |
| 20260506111331 | 56 | 207 | 0.0 | 0.9 | 0.00 | 0.00 | 0.00 | 62 | 1019.3 |
| 20260506110830 | 56 | 203 | 0.0 | 0.0 | 0.00 | 0.00 | 0.00 | 62 | 1019.2 |
| 20260506110823 | 56 | 250 | 0.0 | 0.9 | 0.00 | 0.00 | 0.00 | 62 | 1019.2 |
| 20260506105830 | 56 | 250 | 0.0 | 0.9 | 0.00 | 0.00 | 0.00 | 62 | 1019.1 |
| 20260506105331 | 56 | 250 | 0.0 | 0.9 | 0.00 | 0.01 | 0.00 | 62 | 1019.1 |
| 20260506105104 | 56 | 250 | 0.0 | 0.9 | 0.00 | 0.01 | 0.00 | 62 | 1019.1 |
| 20260506104331 | 56 | 264 | 0.0 | 0.9 | 0.00 | 0.01 | 0.00 | 62 | 1019.2 |
| 20260506103831 | 55 | 286 | 0.0 | 0.0 | 0.00 | 0.01 | 0.00 | 62 | 1019.1 |
| 20260506103331 | 55 | 286 | 0.0 | 0.0 | 0.00 | 0.01 | 0.00 | 62 | 1019.1 |
| 20260506103058 | 55 | 21 | 0.0 | 0.0 | 0.00 | 0.01 | 0.00 | 63 | 1019.1 |
| 20260506102330 | 55 | 21 | 0.0 | 0.0 | 0.00 | 0.01 | 0.00 | 63 | 1019.1 |
| 20260506101830 | 55 | 21 | 0.0 | 0.0 | 0.00 | 0.01 | 0.00 | 63 | 1019.0 |
| 20260506101328 | 55 | 23 | 0.0 | 0.0 | 0.00 | 0.01 | 0.00 | 63 | 1018.9 |
| 20260506100830 | 55 | 24 | 0.0 | 0.0 | 0.00 | 0.01 | 0.00 | 63 | 1018.9 |
| 20260506100329 | 55 | 23 | 0.0 | 0.0 | 0.00 | 0.01 | 0.00 | 63 | 1019.0 |
| 20260506095829 | 55 | 23 | 0.0 | 0.0 | 0.00 | 0.01 | 0.00 | 64 | 1018.9 |
| 20260506095329 | 55 | 234 | 0.0 | 0.0 | 0.00 | 0.01 | 0.00 | 64 | 1019.0 |
| 20260506094830 | 55 | 234 | 0.0 | 0.0 | 0.00 | 0.01 | 0.00 | 64 | 1019.1 |
| 20260506094556 | 54 | 234 | 0.0 | 0.0 | 0.00 | 0.01 | 0.00 | 65 | 1019.1 |
| 20260506093828 | 54 | 234 | 0.0 | 0.0 | 0.00 | 0.01 | 0.00 | 65 | 1019.0 |
| 20260506093330 | 54 | 234 | 0.0 | 0.0 | 0.00 | 0.01 | 0.00 | 65 | 1019.0 |
| 20260506092829 | 54 | 234 | 0.0 | 0.0 | 0.00 | 0.01 | 0.00 | 65 | 1019.1 |
| 20260506092329 | 54 | 234 | 0.0 | 0.0 | 0.00 | 0.01 | 0.00 | 65 | 1019.0 |
| 20260506091830 | 54 | 234 | 0.0 | 0.0 | 0.00 | 0.01 | 0.00 | 64 | 1019.0 |
| 20260506091329 | 54 | 234 | 0.0 | 0.0 | 0.00 | 0.01 | 0.00 | 64 | 1019.0 |
| 20260506090830 | 54 | 234 | 0.0 | 0.0 | 0.00 | 0.01 | 0.00 | 64 | 1018.9 |
| 20260506090329 | 54 | 234 | 0.0 | 0.0 | 0.00 | 0.01 | 0.00 | 63 | 1018.9 |
| 20260506085828 | 54 | 234 | 0.0 | 0.0 | 0.00 | 0.02 | 0.00 | 63 | 1018.9 |
| 20260506085329 | 54 | 234 | 0.0 | 0.0 | 0.00 | 0.02 | 0.00 | 63 | 1019.0 |
| 20260506084829 | 55 | 234 | 0.0 | 0.0 | 0.00 | 0.02 | 0.00 | 63 | 1019.0 |
| 20260506084553 | 55 | 234 | 0.0 | 0.0 | 0.00 | 0.02 | 0.00 | 63 | 1019.1 |
| 20260506083822 | 55 | 234 | 0.0 | 0.0 | 0.00 | 0.02 | 0.00 | 63 | 1019.0 |
| 20260506083317 | 55 | 219 | 0.0 | 0.0 | 0.00 | 0.02 | 0.00 | 63 | 1019.0 |
| 20260506083038 | 55 | 219 | 0.0 | 0.0 | 0.00 | 0.02 | 0.00 | 63 | 1019.0 |
| 20260506082305 | 55 | 219 | 0.0 | 0.0 | 0.00 | 0.02 | 0.00 | 63 | 1019.1 |
| 20260506082034 | 55 | 219 | 0.0 | 0.0 | 0.00 | 0.02 | 0.00 | 63 | 1019.1 |
| 20260506081304 | 55 | 219 | 0.0 | 0.0 | 0.00 | 0.03 | 0.00 | 63 | 1019.1 |
| 20260506080804 | 56 | 219 | 0.0 | 0.0 | 0.00 | 0.04 | 0.00 | 63 | 1019.1 |
| 20260506080303 | 56 | 219 | 0.0 | 0.0 | 0.00 | 0.04 | 0.00 | 63 | 1019.1 |
| 20260506072801 | 56 | 219 | 0.0 | 0.9 | 0.00 | 0.08 | 0.00 | 63 | 1018.9 |
| 20260506072530 | 56 | 200 | 0.0 | 0.0 | 0.00 | 0.09 | 0.00 | 63 | 1018.8 |
| 20260506071801 | 56 | 194 | 0.0 | 0.0 | 0.00 | 0.09 | 0.00 | 63 | 1018.8 |
| 20260506071531 | 56 | 183 | 0.0 | 0.0 | 0.00 | 0.09 | 0.00 | 63 | 1018.7 |
| 20260506070801 | 56 | 183 | 0.0 | 0.0 | 0.00 | 0.10 | 0.00 | 63 | 1018.8 |
| 20260506070301 | 56 | 183 | 0.0 | 0.0 | 0.00 | 0.10 | 0.00 | 63 | 1018.7 |
| 20260506062244 | 55 | 209 | 0.0 | 0.9 | 0.00 | 0.11 | 0.10 | 64 | 1018.4 |
| 20260506061741 | 55 | 250 | 0.0 | 0.9 | 0.00 | 0.11 | 0.10 | 64 | 1018.5 |
| 20260506061515 | 55 | 340 | 0.0 | 0.9 | 0.00 | 0.12 | 0.10 | 64 | 1018.3 |
| 20260506060742 | 55 | 290 | 0.0 | 0.9 | 0.00 | 0.12 | 0.10 | 65 | 1018.4 |
| 20260506060240 | 56 | 290 | 0.0 | 0.9 | 0.00 | 0.12 | 0.10 | 65 | 1018.4 |
| 20260506051231 | 56 | 188 | 0.0 | 1.7 | 0.00 | 0.15 | 0.10 | 66 | 1018.1 |
| 20260506050730 | 56 | 253 | 0.0 | 1.7 | 0.00 | 0.15 | 0.10 | 66 | 1018.0 |
| 20260506050232 | 56 | 255 | 0.0 | 0.9 | 0.00 | 0.15 | 0.10 | 66 | 1018.0 |
| 20260506044720 | 56 | 256 | 0.0 | 1.7 | 0.00 | 0.16 | 0.10 | 65 | 1017.9 |
| 20260506044218 | 56 | 255 | 0.0 | 1.7 | 0.00 | 0.17 | 0.10 | 65 | 1017.8 |
| 20260506043716 | 56 | 44 | 0.0 | 0.9 | 0.00 | 0.17 | 0.10 | 65 | 1017.7 |
| 20260506043214 | 56 | 208 | 0.0 | 0.9 | 0.00 | 0.18 | 0.10 | 65 | 1017.7 |
| 20260506042714 | 56 | 250 | 0.0 | 0.9 | 0.00 | 0.18 | 0.10 | 65 | 1017.7 |
| 20260506042446 | 56 | 162 | 0.0 | 1.7 | 0.00 | 0.18 | 0.10 | 64 | 1017.6 |
| 20260506041712 | 56 | 17 | 0.0 | 1.7 | 0.00 | 0.18 | 0.10 | 64 | 1017.6 |
| 20260506041211 | 56 | 309 | 0.0 | 0.9 | 0.00 | 0.18 | 0.10 | 63 | 1017.6 |
| 20260506040710 | 56 | 258 | 0.0 | 0.9 | 0.00 | 0.18 | 0.10 | 63 | 1017.5 |
| 20260506040208 | 56 | 252 | 0.0 | 0.9 | 0.00 | 0.18 | 0.10 | 63 | 1017.5 |
| 20260506035944 | 56 | 196 | 0.0 | 0.9 | 0.00 | 0.18 | 0.10 | 62 | 1017.4 |
| 20260506035433 | 56 | 227 | 0.0 | 0.9 | 0.00 | 0.18 | 0.10 | 62 | 1017.4 |
| 20260506034708 | 56 | 52 | 0.0 | 1.7 | 0.00 | 0.18 | 0.10 | 62 | 1017.3 |
| 20260506034208 | 56 | 257 | 0.0 | 1.7 | 0.00 | 0.18 | 0.10 | 61 | 1017.2 |
| 20260506033708 | 56 | 287 | 0.0 | 1.7 | 0.00 | 0.18 | 0.10 | 61 | 1017.2 |
| 20260506033207 | 57 | 261 | 0.0 | 1.7 | 0.00 | 0.18 | 0.10 | 61 | 1017.0 |
| 20260506032706 | 57 | 325 | 0.0 | 0.9 | 0.00 | 0.18 | 0.10 | 61 | 1017.1 |
| 20260506032206 | 57 | 331 | 0.0 | 0.9 | 0.00 | 0.18 | 0.10 | 61 | 1016.9 |
| 20260506031703 | 58 | 136 | 0.0 | 0.9 | 0.00 | 0.18 | 0.10 | 60 | 1016.7 |
| 20260506031204 | 58 | 141 | 0.0 | 0.9 | 0.00 | 0.18 | 0.10 | 60 | 1016.8 |
| 20260506030701 | 58 | 236 | 0.0 | 2.6 | 0.00 | 0.18 | 0.10 | 59 | 1016.7 |
| 20260506030201 | 58 | 228 | 0.0 | 2.6 | 0.00 | 0.18 | 0.10 | 59 | 1016.6 |
| 20260506025932 | 58 | 90 | 0.9 | 3.5 | 0.00 | 0.18 | 0.10 | 58 | 1016.5 |
| 20260506025205 | 59 | 252 | 0.9 | 3.5 | 0.00 | 0.18 | 0.10 | 58 | 1016.5 |
| 20260506024704 | 59 | 338 | 0.9 | 7.8 | 0.00 | 0.18 | 0.10 | 58 | 1016.5 |
| 20260506024202 | 59 | 297 | 0.9 | 7.8 | 0.00 | 0.18 | 0.10 | 57 | 1016.6 |
| 20260506023706 | 60 | 246 | 0.9 | 2.6 | 0.00 | 0.18 | 0.10 | 56 | 1016.6 |
| 20260506023201 | 60 | 51 | 0.9 | 3.5 | 0.00 | 0.18 | 0.10 | 56 | 1016.5 |
| 20260506022701 | 60 | 323 | 0.9 | 3.5 | 0.00 | 0.18 | 0.10 | 55 | 1016.4 |
| 20260506022201 | 61 | 194 | 0.9 | 3.5 | 0.00 | 0.18 | 0.10 | 55 | 1016.4 |
| 20260506021701 | 61 | 278 | 0.9 | 5.2 | 0.00 | 0.18 | 0.10 | 55 | 1016.3 |
| 20260506021200 | 61 | 0 | 0.9 | 5.2 | 0.00 | 0.18 | 0.10 | 54 | 1016.2 |
| 20260506020701 | 61 | 246 | 0.9 | 3.5 | 0.00 | 0.18 | 0.10 | 53 | 1016.2 |
| 20260506020201 | 62 | 157 | 0.9 | 4.3 | 0.00 | 0.18 | 0.10 | 53 | 1016.1 |
| 20260506015703 | 61 | 101 | 0.9 | 7.8 | 0.00 | 0.18 | 0.10 | 53 | 1016.1 |
| 20260506015659 | 62 | 296 | 0.9 | 7.8 | 0.00 | 0.18 | 0.10 | 52 | 1016.1 |
| 20260506014703 | 62 | 294 | 0.9 | 5.2 | 0.00 | 0.18 | 0.10 | 52 | 1016.0 |
| 20260506014202 | 62 | 331 | 0.9 | 3.5 | 0.00 | 0.18 | 0.10 | 52 | 1016.0 |
| 20260506013703 | 63 | 241 | 0.9 | 3.5 | 0.00 | 0.18 | 0.10 | 51 | 1015.9 |
| 20260506013202 | 62 | 337 | 0.9 | 2.6 | 0.00 | 0.18 | 0.10 | 52 | 1016.0 |
| 20260506013154 | 62 | 98 | 0.9 | 5.2 | 0.00 | 0.18 | 0.10 | 53 | 1016.0 |
| 20260506012201 | 62 | 250 | 0.9 | 5.2 | 0.00 | 0.18 | 0.10 | 53 | 1016.0 |
| 20260506011933 | 62 | 246 | 0.9 | 3.5 | 0.00 | 0.18 | 0.10 | 52 | 1016.2 |
| 20260506011200 | 62 | 305 | 0.9 | 3.5 | 0.00 | 0.18 | 0.10 | 52 | 1016.1 |
| 20260506010701 | 62 | 262 | 0.9 | 5.2 | 0.00 | 0.18 | 0.10 | 52 | 1016.2 |
| 20260506010425 | 62 | 235 | 0.9 | 5.2 | 0.00 | 0.18 | 0.10 | 52 | 1016.0 |
| 20260506005701 | 62 | 289 | 0.9 | 3.5 | 0.00 | 0.18 | 0.10 | 52 | 1016.2 |
| 20260506005200 | 62 | 272 | 0.9 | 4.3 | 0.00 | 0.18 | 0.10 | 52 | 1016.0 |
| 20260506004701 | 62 | 112 | 0.9 | 4.3 | 0.00 | 0.18 | 0.10 | 51 | 1015.9 |
| 20260506004200 | 63 | 292 | 0.9 | 4.3 | 0.00 | 0.18 | 0.10 | 52 | 1015.9 |
| 20260506003700 | 63 | 281 | 0.9 | 5.2 | 0.00 | 0.18 | 0.10 | 51 | 1015.8 |
| 20260506003200 | 63 | 348 | 0.9 | 5.2 | 0.00 | 0.18 | 0.10 | 52 | 1015.9 |
| 20260506002701 | 63 | 263 | 0.9 | 3.5 | 0.00 | 0.18 | 0.10 | 52 | 1015.8 |
| 20260506002201 | 62 | 290 | 0.9 | 5.2 | 0.00 | 0.18 | 0.10 | 52 | 1015.8 |
| 20260506001708 | 62 | 240 | 0.9 | 7.0 | 0.00 | 0.18 | 0.10 | 54 | 1015.6 |
| 20260506001703 | 62 | 182 | 0.9 | 5.2 | 0.00 | 0.18 | 0.10 | 53 | 1015.7 |
| 20260506000701 | 62 | 247 | 0.9 | 7.0 | 0.00 | 0.18 | 0.10 | 54 | 1015.7 |
| 20260506000200 | 62 | 240 | 0.9 | 2.6 | 0.00 | 0.18 | 0.10 | 55 | 1015.7 |
| 20260505235701 | 62 | 258 | 0.9 | 3.5 | 0.00 | 0.18 | 0.10 | 55 | 1015.7 |
| 20260505235425 | 62 | 271 | 0.9 | 3.5 | 0.00 | 0.18 | 0.10 | 56 | 1015.7 |
| 20260505234701 | 61 | 198 | 0.9 | 3.5 | 0.00 | 0.18 | 0.10 | 57 | 1015.7 |
| 20260505234200 | 61 | 236 | 0.9 | 4.3 | 0.00 | 0.18 | 0.10 | 56 | 1015.7 |
| 20260505233701 | 61 | 269 | 0.9 | 4.3 | 0.00 | 0.18 | 0.10 | 55 | 1015.8 |
| 20260505233200 | 61 | 21 | 0.9 | 3.5 | 0.00 | 0.18 | 0.10 | 56 | 1015.8 |
| 20260505233151 | 61 | 263 | 0.9 | 4.3 | 0.00 | 0.18 | 0.10 | 55 | 1015.8 |
| 20260505232200 | 61 | 267 | 1.7 | 6.1 | 0.00 | 0.18 | 0.10 | 55 | 1015.9 |
| 20260505231701 | 62 | 260 | 0.9 | 6.1 | 0.00 | 0.18 | 0.10 | 55 | 1015.8 |
| 20260505231203 | 62 | 266 | 0.9 | 5.2 | 0.00 | 0.18 | 0.10 | 55 | 1015.8 |
| 20260505230702 | 62 | 258 | 0.9 | 5.2 | 0.00 | 0.18 | 0.10 | 55 | 1015.8 |
| 20260505230201 | 63 | 271 | 0.9 | 5.2 | 0.00 | 0.18 | 0.10 | 55 | 1015.8 |
| 20260505225701 | 63 | 98 | 0.9 | 4.3 | 0.00 | 0.18 | 0.10 | 55 | 1015.8 |
| 20260505225201 | 63 | 284 | 0.9 | 5.2 | 0.00 | 0.18 | 0.10 | 55 | 1015.8 |
| 20260505224700 | 63 | 242 | 1.7 | 5.2 | 0.00 | 0.18 | 0.10 | 54 | 1015.8 |
| 20260505224201 | 63 | 273 | 1.7 | 5.2 | 0.00 | 0.18 | 0.10 | 54 | 1015.7 |
| 20260505224156 | 64 | 251 | 1.7 | 7.0 | 0.00 | 0.18 | 0.10 | 53 | 1015.8 |
| 20260505223201 | 64 | 206 | 0.9 | 7.0 | 0.00 | 0.18 | 0.10 | 52 | 1015.8 |
| 20260505222701 | 65 | 269 | 0.9 | 4.3 | 0.00 | 0.18 | 0.10 | 52 | 1015.7 |
| 20260505222159 | 65 | 288 | 0.9 | 4.3 | 0.00 | 0.18 | 0.10 | 53 | 1015.7 |
| 20260505221653 | 65 | 267 | 0.9 | 4.3 | 0.00 | 0.18 | 0.10 | 51 | 1015.8 |
| 20260505221150 | 65 | 49 | 1.7 | 4.3 | 0.00 | 0.18 | 0.10 | 52 | 1015.8 |
| 20260505220912 | 65 | 266 | 0.9 | 3.5 | 0.00 | 0.18 | 0.10 | 52 | 1015.7 |
| 20260505220147 | 65 | 19 | 1.7 | 5.2 | 0.00 | 0.18 | 0.10 | 53 | 1015.8 |
| 20260505215910 | 66 | 300 | 0.9 | 5.2 | 0.00 | 0.18 | 0.10 | 51 | 1015.9 |
| 20260505215406 | 66 | 257 | 0.0 | 3.5 | 0.00 | 0.18 | 0.10 | 51 | 1015.9 |
| 20260505214645 | 65 | 240 | 0.9 | 3.5 | 0.00 | 0.18 | 0.10 | 53 | 1015.9 |
| 20260505214142 | 64 | 84 | 0.9 | 3.5 | 0.00 | 0.18 | 0.10 | 54 | 1016.0 |
| 20260505213641 | 64 | 247 | 0.9 | 3.5 | 0.00 | 0.18 | 0.10 | 54 | 1015.9 |
| 20260505213142 | 63 | 320 | 0.9 | 4.3 | 0.00 | 0.18 | 0.10 | 55 | 1016.1 |
| 20260505212641 | 63 | 136 | 0.9 | 4.3 | 0.00 | 0.18 | 0.10 | 53 | 1016.1 |
| 20260505212401 | 64 | 250 | 0.9 | 4.3 | 0.00 | 0.18 | 0.10 | 53 | 1016.1 |
| 20260505211639 | 64 | 339 | 0.9 | 3.5 | 0.00 | 0.18 | 0.10 | 54 | 1016.1 |
| 20260505211401 | 63 | 92 | 0.9 | 3.5 | 0.00 | 0.18 | 0.10 | 55 | 1016.0 |
| 20260505210639 | 63 | 215 | 0.9 | 3.5 | 0.00 | 0.18 | 0.10 | 55 | 1016.2 |
| 20260505210138 | 63 | 248 | 0.9 | 4.3 | 0.00 | 0.18 | 0.10 | 54 | 1016.2 |
| 20260505205633 | 63 | 108 | 0.9 | 4.3 | 0.00 | 0.18 | 0.10 | 55 | 1016.1 |
| 20260505205129 | 63 | 233 | 1.7 | 6.1 | 0.00 | 0.18 | 0.10 | 55 | 1016.0 |
| 20260505204629 | 62 | 275 | 1.7 | 6.1 | 0.00 | 0.18 | 0.10 | 54 | 1016.1 |
| 20260505204130 | 63 | 200 | 0.9 | 6.1 | 0.00 | 0.18 | 0.10 | 53 | 1016.2 |
| 20260505203629 | 63 | 117 | 0.9 | 4.3 | 0.00 | 0.18 | 0.10 | 54 | 1016.0 |
| 20260505203131 | 63 | 163 | 0.9 | 1.7 | 0.00 | 0.18 | 0.10 | 55 | 1016.2 |
| 20260505202630 | 63 | 5 | 0.9 | 2.6 | 0.00 | 0.18 | 0.10 | 54 | 1016.2 |
| 20260505202131 | 63 | 225 | 0.9 | 3.5 | 0.00 | 0.18 | 0.10 | 54 | 1016.2 |
| 20260505201629 | 63 | 325 | 0.0 | 4.3 | 0.00 | 0.18 | 0.10 | 53 | 1016.3 |
| 20260505201131 | 64 | 263 | 0.0 | 4.3 | 0.00 | 0.18 | 0.10 | 53 | 1016.2 |
| 20260505200629 | 64 | 317 | 0.0 | 2.6 | 0.00 | 0.18 | 0.10 | 53 | 1016.2 |
| 20260505200131 | 64 | 214 | 0.0 | 2.6 | 0.00 | 0.18 | 0.10 | 54 | 1016.3 |
| 20260505195629 | 64 | 151 | 0.0 | 0.9 | 0.00 | 0.18 | 0.10 | 55 | 1016.3 |
| 20260505195129 | 63 | 226 | 0.0 | 2.6 | 0.00 | 0.18 | 0.10 | 57 | 1016.2 |
| 20260505194627 | 62 | 203 | 0.0 | 3.5 | 0.00 | 0.18 | 0.10 | 57 | 1016.2 |
| 20260505194126 | 62 | 263 | 0.9 | 3.5 | 0.00 | 0.18 | 0.10 | 57 | 1016.3 |
| 20260505193623 | 62 | 246 | 0.9 | 3.5 | 0.00 | 0.18 | 0.10 | 57 | 1016.4 |
| 20260505193123 | 62 | 90 | 0.9 | 3.5 | 0.00 | 0.18 | 0.10 | 57 | 1016.4 |
| 20260505192623 | 62 | 272 | 0.9 | 3.5 | 0.00 | 0.18 | 0.10 | 58 | 1016.4 |
| 20260505192122 | 62 | 259 | 0.9 | 3.5 | 0.00 | 0.18 | 0.10 | 58 | 1016.3 |
| 20260505191617 | 62 | 294 | 0.0 | 2.6 | 0.00 | 0.18 | 0.10 | 58 | 1016.2 |
| 20260505191109 | 62 | 349 | 0.9 | 3.5 | 0.00 | 0.18 | 0.10 | 58 | 1016.3 |
| 20260505190609 | 62 | 301 | 0.9 | 3.5 | 0.00 | 0.18 | 0.10 | 57 | 1016.3 |
| 20260505190331 | 62 | 232 | 0.0 | 1.7 | 0.00 | 0.18 | 0.10 | 57 | 1016.3 |
| 20260505185842 | 62 | 139 | 0.0 | 2.6 | 0.00 | 0.18 | 0.10 | 58 | 1016.1 |
| 20260505185107 | 62 | 271 | 0.0 | 2.6 | 0.00 | 0.18 | 0.10 | 58 | 1016.0 |
| 20260505184835 | 62 | 294 | 0.0 | 1.7 | 0.00 | 0.18 | 0.10 | 58 | 1016.0 |
| 20260505184107 | 61 | 92 | 0.0 | 1.7 | 0.00 | 0.18 | 0.10 | 59 | 1016.1 |
| 20260505183609 | 61 | 226 | 0.0 | 1.7 | 0.00 | 0.18 | 0.10 | 60 | 1016.1 |
| 20260505183329 | 60 | 107 | 0.0 | 1.7 | 0.00 | 0.18 | 0.10 | 61 | 1016.0 |
| 20260505182601 | 60 | 269 | 0.0 | 3.5 | 0.00 | 0.18 | 0.10 | 62 | 1016.2 |
| 20260505182101 | 59 | 246 | 0.0 | 3.5 | 0.00 | 0.18 | 0.10 | 62 | 1016.2 |
| 20260505181601 | 59 | 216 | 0.0 | 1.7 | 0.00 | 0.18 | 0.10 | 62 | 1016.1 |
| 20260505181101 | 59 | 225 | 0.0 | 1.7 | 0.00 | 0.18 | 0.10 | 61 | 1016.1 |
| 20260505180602 | 59 | 252 | 0.0 | 1.7 | 0.00 | 0.18 | 0.10 | 61 | 1016.0 |
| 20260505180101 | 59 | 330 | 0.0 | 1.7 | 0.00 | 0.18 | 0.10 | 62 | 1016.0 |
| 20260505175601 | 59 | 161 | 0.0 | 1.7 | 0.00 | 0.18 | 0.10 | 62 | 1015.9 |